Location: Unspecified
(0.0000°N, 0.0000°E)
Time: 05:53:59
(UTC+00:00)

Vanguard 2 - All Passes

Search period start: 18 January 2017 00:00
Search period end: 28 January 2017 00:00
Orbit: 553 x 2940 km, 32.9° (Epoch: 17 January)

Date Brightness Start Highest point End Pass type
(mag) Time Alt. Az. Time Alt. Az. Time Alt. Az.
18 Jan - 05:44:20 10° NNW 05:52:20 37° NE 06:04:38 10° ESE visible
18 Jan - 07:51:47 10° WNW 08:03:03 78° SW 08:20:18 10° SE daylight
18 Jan - 10:03:50 10° W 10:16:50 35° SSW 10:32:23 10° SSE daylight
18 Jan - 12:23:12 10° SW 12:33:36 18° SSW 12:43:33 10° SSE daylight
18 Jan - 14:44:04 10° SSW 14:51:32 14° S 14:57:54 10° SSE daylight
18 Jan - 16:56:43 10° SSW 17:06:24 25° SSE 17:13:04 10° ESE daylight
18 Jan - 19:08:05 10° SW 19:17:30 78° SE 19:23:04 10° ENE visible
18 Jan - 21:22:33 10° WNW 21:25:39 14° NW 21:28:17 10° N visible
19 Jan - 06:01:59 10° NW 06:10:28 51° NE 06:24:15 10° ESE daylight
19 Jan - 08:10:21 10° WNW 08:21:43 61° SSW 08:38:40 10° SE daylight
19 Jan - 10:23:52 10° WSW 10:36:15 28° SSW 10:50:28 10° SSE daylight
19 Jan - 12:44:31 10° SW 12:53:49 16° S 13:02:33 10° SSE daylight
19 Jan - 15:02:35 10° SSW 15:11:28 17° S 15:18:39 10° SE daylight
19 Jan - 17:14:34 10° SW 17:25:27 34° SSE 17:32:26 10° E daylight
19 Jan - 19:26:40 10° WSW 19:35:45 68° NW 19:41:11 10° NE visible
20 Jan - 04:14:54 10° N 04:19:18 16° NE 04:24:56 10° ENE visible
20 Jan - 06:19:51 10° NW 06:28:40 70° NE 06:43:24 10° ESE daylight
20 Jan - 08:29:13 10° W 08:40:35 48° SSW 08:56:51 10° SE daylight
20 Jan - 10:44:23 10° WSW 10:55:55 23° SSW 11:08:39 10° SSE daylight
20 Jan - 13:05:15 10° SSW 13:14:08 15° S 13:22:18 10° SSE daylight
20 Jan - 15:20:44 10° SSW 15:31:10 21° SSE 15:39:06 10° ESE daylight
20 Jan - 17:32:35 10° SW 17:44:19 48° SSE 17:51:23 10° E daylight
20 Jan - 19:45:40 10° WSW 19:53:49 42° NW 19:58:59 10° NNE visible
21 Jan - 04:31:43 10° NNW 04:37:29 25° NE 04:45:49 10° E visible
21 Jan - 06:37:57 10° NW 06:46:58 88° SW 07:02:11 10° SE daylight
21 Jan - 08:48:28 10° W 08:59:40 37° SSW 09:14:58 10° SE daylight
21 Jan - 11:05:18 10° SW 11:15:53 19° SSW 11:27:06 10° SSE daylight
21 Jan - 13:25:03 10° SSW 13:34:26 16° S 13:42:46 10° SE daylight
21 Jan - 15:38:44 10° SSW 15:50:37 27° SSE 15:59:07 10° ESE daylight
21 Jan - 17:50:50 10° SW 18:02:57 68° SSE 18:09:58 10° ENE daylight
21 Jan - 20:05:13 10° W 20:11:48 26° NW 20:16:25 10° NNE visible
22 Jan - 04:49:03 10° NNW 04:55:32 37° NE 05:05:48 10° ESE visible
22 Jan - 06:56:19 10° WNW 07:05:29 67° SSW 07:20:40 10° SE daylight
22 Jan - 09:08:08 10° WSW 09:18:58 29° SSW 09:33:02 10° SSE daylight
22 Jan - 11:26:20 10° SW 11:36:05 17° S 11:46:04 10° SSE daylight
22 Jan - 13:44:02 10° SSW 13:54:33 18° S 14:03:32 10° SE daylight
22 Jan - 15:56:43 10° SW 16:09:51 35° SSE 16:18:39 10° E daylight
22 Jan - 18:09:20 10° SW 18:21:21 86° NW 18:28:14 10° NE daylight
22 Jan - 20:25:37 10° WNW 20:29:52 16° NW 20:33:14 10° N visible
23 Jan - 05:06:43 10° NW 05:13:36 54° NE 05:25:12 10° ESE visible
23 Jan - 07:14:58 10° WNW 07:24:13 51° SSW 07:38:56 10° SE daylight
23 Jan - 09:28:16 10° WSW 09:38:32 24° SSW 09:51:10 10° SSE daylight
23 Jan - 11:47:03 10° SW 11:56:26 16° S 12:05:47 10° SSE daylight
23 Jan - 14:02:29 10° SSW 14:14:26 22° SSE 14:24:10 10° ESE daylight
23 Jan - 16:14:47 10° SW 16:28:52 46° SSE 16:37:46 10° E daylight
23 Jan - 18:28:10 10° WSW 18:39:33 60° NW 18:46:14 10° NE visible
24 Jan - 03:20:01 10° N 03:23:11 14° NE 03:27:04 10° ENE visible
24 Jan - 05:24:39 10° NW 05:31:46 78° NE 05:44:09 10° ESE visible
24 Jan - 07:33:59 10° W 07:43:10 38° SSW 07:57:03 10° SE daylight
24 Jan - 09:48:49 10° SW 09:58:22 19° SSW 10:09:32 10° SSE daylight
24 Jan - 12:07:02 10° SSW 12:16:48 16° S 12:26:15 10° SE daylight
24 Jan - 14:20:40 10° SSW 14:34:04 27° SSE 14:44:25 10° ESE daylight
24 Jan - 16:32:59 10° SW 16:47:39 61° SSE 16:56:31 10° ENE daylight
24 Jan - 18:47:25 10° WSW 18:57:36 40° NW 19:03:57 10° NNE visible
25 Jan - 03:36:39 10° N 03:41:15 24° NE 03:47:46 10° E visible
25 Jan - 05:42:51 10° WNW 05:50:06 75° SW 06:02:44 10° SE visible
25 Jan - 07:53:23 10° WSW 08:02:21 29° SSW 08:15:04 10° SSE daylight
25 Jan - 10:09:37 10° SW 10:18:27 17° S 10:28:20 10° SSE daylight
25 Jan - 12:26:14 10° SSW 12:37:03 18° S 12:47:12 10° SE daylight
25 Jan - 14:38:45 10° SW 14:53:27 34° SSE 15:04:12 10° E daylight
25 Jan - 16:51:24 10° SW 17:06:13 82° SE 17:14:57 10° ENE daylight
25 Jan - 19:07:14 10° W 19:15:39 27° NW 19:21:22 10° NNE visible
26 Jan - 03:54:00 10° NNW 03:59:16 38° NE 04:07:29 10° ESE visible
26 Jan - 06:01:20 10° WNW 06:08:41 53° SSW 06:21:03 10° SE daylight
26 Jan - 08:13:15 10° WSW 08:21:45 23° SSW 08:33:05 10° SSE daylight
26 Jan - 10:30:16 10° SSW 10:38:42 16° S 10:47:51 10° SSE daylight
26 Jan - 12:44:50 10° SSW 12:57:05 22° SSE 13:08:08 10° ESE daylight
26 Jan - 14:56:50 10° SW 15:12:36 44° SSE 15:23:34 10° E daylight
26 Jan - 17:10:05 10° WSW 17:24:34 75° NW 17:33:07 10° NE daylight
26 Jan - 19:27:51 10° WNW 19:33:47 17° NW 19:38:17 10° N visible
27 Jan - 04:11:43 10° NW 04:17:18 60° NE 04:26:37 10° ESE visible
27 Jan - 06:20:09 10° W 06:27:29 39° SSW 06:39:09 10° SE daylight
27 Jan - 08:33:34 10° SW 08:41:24 19° SSW 08:51:12 10° SSE daylight
27 Jan - 10:50:18 10° SSW 10:59:02 16° S 11:08:17 10° SE daylight
27 Jan - 13:03:06 10° SSW 13:16:51 26° SSE 13:28:45 10° ESE daylight
27 Jan - 15:14:59 10° SW 15:31:31 57° SSE 15:42:31 10° ENE daylight
27 Jan - 17:29:07 10° WSW 17:42:46 55° NW 17:51:02 10° NE daylight
27 Jan - 19:50:43 10° NW 19:52:05 10° NW 19:53:23 10° NNW visible
